This is the latest recevied weather packets stored in our database for station/object KQ4UPF. If no packets are shown the sender has not sent any weather packets the latest 10 day(s).
| Time | Temp. | Humidity | Pressure | Rain* | Wind** | Luminosity | Snow |
|---|---|---|---|---|---|---|---|
| 1778014872 | 24.44° C | 54% | 1012.5 hPa | 0 mm | - | 293 W/m² | - |
| 1778014570 | 25° C | 48% | 1012.5 hPa | 0 mm | - | 331 W/m² | - |
| 1778014267 | 25.56° C | 46% | 1012.4 hPa | 0 mm | - | 441 W/m² | - |
| 1778013964 | 25° C | 52% | 1012.4 hPa | 0 mm | - | 430 W/m² | - |
| 1778013661 | 24.44° C | 53% | 1012.5 hPa | 0 mm | - | 785 W/m² | - |
| 1778013358 | 25° C | 52% | 1012.7 hPa | 0 mm | - | 229 W/m² | - |
| 1778013055 | 25.56° C | 47% | 1012.5 hPa | 0 mm | - | 194 W/m² | - |
| 1778012751 | 25.56° C | 49% | 1012.3 hPa | 0 mm | - | 346 W/m² | - |
| 1778012447 | 25.56° C | 50% | 1012.7 hPa | 0 mm | - | 445 W/m² | - |
| 1778012144 | 25.56° C | 53% | 1012.7 hPa | 0 mm | - | 407 W/m² | - |
| 1778011842 | 25° C | 47% | 1012.5 hPa | 0 mm | - | 516 W/m² | - |
| 1778011539 | 24.44° C | 50% | 1012.4 hPa | 0 mm | - | 947 W/m² | - |
| 1778011236 | 23.89° C | 45% | 1012.4 hPa | 0 mm | - | 398 W/m² | - |
| 1778010932 | 23.33° C | 48% | 1012.1 hPa | 0 mm | - | 469 W/m² | - |
| 1778010630 | 23.89° C | 49% | 1012.8 hPa | 0 mm | - | 185 W/m² | - |
| 1778010327 | 23.89° C | 48% | 1013.5 hPa | 0 mm | - | 183 W/m² | - |
| 1778010022 | 24.44° C | 47% | 1013.9 hPa | 0 mm | - | 208 W/m² | - |
| 1778009720 | 24.44° C | 46% | 1013.6 hPa | 0 mm | - | 268 W/m² | - |
| 1778009417 | 25° C | 44% | 1013.6 hPa | 0 mm | - | 344 W/m² | - |
| 1778009115 | 25° C | 39% | 1013.6 hPa | 0 mm | - | 422 W/m² | - |
| 1778008812 | 26.11° C | 42% | 1013.9 hPa | 0 mm | - | 472 W/m² | - |
| 1778008511 | 26.11° C | 43% | 1014.3 hPa | 0 mm | - | 682 W/m² | - |
| 1778008208 | 25.56° C | 39% | 1014.2 hPa | 0 mm | - | 857 W/m² | - |
| 1778007903 | 25.56° C | 40% | 1014.1 hPa | 0 mm | - | 820 W/m² | - |
| 1778007598 | 26.11° C | 40% | 1014.1 hPa | 0 mm | - | 776 W/m² | - |
* Rain latest hour (hover to see other rain measurements)
** Current wind speed in m/s (hover to see current wind gust speed)